Location: Vanderbilt Beach
(26.2700°N, 81.7900°W)
Time: 12:31:41
(UTC-05:00)

Tiangong - Visible Passes

Search period start: 09 December 2023 00:00
Search period end: 19 December 2023 00:00
Orbit: 372 x 383 km, 41.5° (Epoch: 09 December)

Date Brightness Start Highest point End Pass type
(mag) Time Alt. Az. Time Alt. Az. Time Alt. Az.
11 Dec 1.4 06:24:30 10° SSE 06:25:20 11° SE 06:26:10 10° ESE visible
13 Dec 0.4 05:55:32 10° SSW 05:57:59 22° SE 06:00:27 10° E visible
14 Dec -2.2 06:29:28 10° WSW 06:32:33 67° NNW 06:35:38 10° NE visible
15 Dec -1.3 05:30:21 44° SSE 05:30:35 46° SE 05:33:34 10° ENE visible
16 Dec -1.4 06:04:32 29° WNW 06:05:14 33° NNW 06:08:05 10° NE visible
17 Dec 1.1 05:06:15 10° NE 05:06:15 10° NE 05:06:15 10° NE visible
17 Dec 0.1 06:38:53 10° NW 06:40:11 12° NNW 06:41:28 10° N visible
18 Dec 0.4 05:39:48 12° NNE 05:39:48 12° NNE 05:40:15 10° NNE visible
